EW7237 Weather Reports


time (UTC)temp
C
wind
direction
speed
KPH
gust
KPH
rain 1hr
cm
rain 24hr
cm
rain mn
cm
humidity
%
barometer
mb
20190817164604 22 83 0.0 3.2 0.00 0.00 0.00 62 1012.9
20190817163109 22 283 0.0 3.2 0.00 0.00 0.00 55 1013.3
20190817161627 23 283 0.0 3.2 0.00 0.00 0.00 49 1013.1
20190817160103 23 273 0.0 3.2 0.00 0.00 0.00 47 1012.8
20190817154634 23 280 1.6 6.4 0.00 0.00 0.00 45 1013.1
20190817153117 23 302 3.2 8.0 0.00 0.00 0.00 44 1013.2
20190817151625 24 300 4.8 11.3 0.00 0.00 0.00 42 1013.0
20190817144616 25 237 1.6 9.7 0.00 0.00 0.00 42 1013.3
20190817143120 25 284 1.6 11.3 0.00 0.00 0.00 41 1013.2
20190817141605 25 290 1.6 8.0 0.00 0.00 0.00 40 1013.1
20190817140047 25 293 1.6 8.0 0.00 0.00 0.00 40 1013.2
20190817134544 25 283 6.4 11.3 0.00 0.00 0.00 39 1013.5
20190817133047 26 288 1.6 11.3 0.00 0.00 0.00 41 1013.5
20190817131550 26 288 3.2 12.9 0.00 0.00 0.00 41 1013.5
20190817130112 26 133 4.8 14.5 0.00 0.00 0.00 41 1013.6
20190817124602 25 240 1.6 8.0 0.00 0.00 0.00 45 1013.7
20190817123100 25 288 4.8 12.9 0.00 0.00 0.00 43 1013.9
20190817121551 25 305 6.4 14.5 0.00 0.00 0.00 43 1014.2
20190817120051 25 217 1.6 11.3 0.00 0.00 0.00 44 1014.2
20190817114518 25 221 3.2 19.3 0.00 0.00 0.00 43 1014.4
20190817113030 25 246 3.2 14.5 0.00 0.00 0.00 46 1014.5
20190817111515 25 285 0.0 11.3 0.00 0.00 0.00 44 1014.5
20190817110013 25 239 3.2 12.9 0.00 0.00 0.00 43 1014.7
20190817104507 25 281 3.2 12.9 0.00 0.00 0.00 45 1014.7
20190817103007 25 186 3.2 11.3 0.00 0.00 0.00 45 1014.7
20190817100202 24 274 1.6 6.4 0.00 0.00 0.00 49 1014.9
20190817094633 23 263 4.8 11.3 0.00 0.00 0.00 49 1015.0
20190817093145 22 256 3.2 11.3 0.00 0.00 0.00 54 1015.1
20190817091713 22 180 1.6 12.9 0.00 0.00 0.00 60 1015.1
20190817090113 21 213 3.2 11.3 0.00 0.00 0.00 58 1015.0
20190817084640 21 194 4.8 11.3 0.00 0.00 0.00 62 1015.2
20190817083137 21 236 0.0 6.4 0.00 0.00 0.00 65 1015.2
20190817081633 21 165 0.0 3.2 0.00 0.00 0.00 66 1015.3
20190817080123 20 110 0.0 4.8 0.00 0.00 0.00 68 1015.3
20190817074649 19 87 0.0 3.2 0.00 0.00 0.00 73 1015.4
20190817073134 18 123 0.0 1.6 0.00 0.00 0.00 78 1015.5
20190817071542 17 123 0.0 1.6 0.00 0.00 0.00 81 1015.4
20190817070047 16 124 0.0 1.6 0.00 0.00 0.00 85 1015.5
20190817064626 14 124 0.0 1.6 0.00 0.00 0.00 93 1015.3
20190817063032 12 124 0.0 0.0 0.00 0.00 0.00 97 1015.4
20190817061538 12 124 0.0 0.0 0.00 0.00 0.00 98 1015.3
20190817060038 10 124 0.0 0.0 0.00 0.00 0.00 98 1015.2
20190817054513 8 124 0.0 0.0 0.00 0.00 0.00 97 1015.0
20190817053038 8 124 0.0 0.0 0.00 0.00 0.00 97 1015.0
20190817051506 8 124 0.0 0.0 0.00 0.00 0.00 97 1015.1
20190817050017 8 124 0.0 0.0 0.00 0.00 0.00 97 1015.2
20190817044501 7 124 0.0 0.0 0.00 0.03 0.00 97 1015.2
20190817043315 7 124 0.0 0.0 0.00 0.03 0.00 97 1015.2
20190817041659 7 124 0.0 0.0 0.00 0.03 0.00 97 1015.2
20190817040249 7 124 0.0 0.0 0.00 0.03 0.00 97 1015.1
20190817034827 7 124 0.0 0.0 0.00 0.03 0.00 97 1015.1
20190817033134 7 124 0.0 0.0 0.00 0.03 0.00 97 1015.1
20190817031708 7 124 0.0 0.0 0.00 0.03 0.00 97 1015.2
20190817030200 7 124 0.0 0.0 0.00 0.03 0.00 97 1015.1
20190817024718 7 124 0.0 0.0 0.00 0.03 0.00 96 1015.2
20190817023209 7 124 0.0 0.0 0.00 0.03 0.00 96 1015.5
20190817021649 7 124 0.0 0.0 0.00 0.03 0.00 96 1015.6
20190817020154 7 124 0.0 0.0 0.00 0.03 0.00 96 1015.4
20190817014705 7 124 0.0 0.0 0.00 0.03 0.00 96 1015.3
20190817013121 7 124 0.0 0.0 0.00 0.03 0.00 96 1015.2
20190817011732 7 124 0.0 0.0 0.00 0.03 0.00 96 1015.3
20190817010136 7 124 0.0 0.0 0.00 0.03 0.00 96 1015.3
20190817004652 7 124 0.0 0.0 0.00 0.03 0.00 96 1015.3
20190817003137 8 124 0.0 0.0 0.00 0.03 0.00 95 1015.2
20190817001646 8 124 0.0 0.0 0.00 0.03 0.00 95 1015.2
20190817000120 8 124 0.0 0.0 0.00 0.03 0.00 95 1015.2
20190816234629 8 124 0.0 0.0 0.00 0.30 0.00 95 1015.2
20190816233053 8 124 0.0 0.0 0.00 0.30 0.00 95 1015.4
20190816231615 8 124 0.0 0.0 0.00 0.30 0.00 95 1015.7
20190816230119 8 124 0.0 0.0 0.00 0.30 0.00 95 1015.6
20190816224559 9 124 0.0 0.0 0.00 0.30 0.00 94 1015.6
20190816223102 9 124 0.0 0.0 0.00 0.30 0.00 95 1015.8
20190816221536 9 124 0.0 0.0 0.00 0.30 0.00 94 1015.7
20190816220042 9 124 0.0 0.0 0.00 0.30 0.00 94 1015.7
20190816214608 10 124 0.0 0.0 0.00 0.30 0.30 93 1015.6
20190816213113 10 124 0.0 0.0 0.00 0.30 0.30 93 1015.6
20190816211604 10 124 0.0 0.0 0.00 0.30 0.30 92 1015.6
20190816210039 11 124 0.0 0.0 0.00 0.30 0.30 92 1015.7
20190816204534 11 124 0.0 0.0 0.00 0.36 0.30 91 1015.7
20190816203055 11 124 0.0 0.0 0.00 0.36 0.30 91 1015.9
20190816201517 12 124 0.0 0.0 0.00 0.36 0.30 90 1015.8
20190816200052 12 124 0.0 1.6 0.00 0.36 0.30 89 1015.9
20190816194515 12 124 0.0 0.0 0.00 0.38 0.30 89 1015.9
20190816193043 13 124 0.0 0.0 0.00 0.38 0.30 87 1015.7
20190816191517 13 124 0.0 0.0 0.00 0.38 0.30 85 1016.1
20190816190025 15 124 0.0 0.0 0.00 0.38 0.30 82 1016.0
20190816184516 15 124 0.0 0.0 0.00 0.38 0.30 79 1015.8
20190816183017 17 124 0.0 0.0 0.00 0.38 0.30 73 1015.7
20190816181524 18 124 0.0 0.0 0.00 0.38 0.30 66 1015.7
20190816180015 21 124 0.0 0.0 0.00 0.38 0.30 53 1015.6
20190816174530 21 124 0.0 0.0 0.00 0.38 0.30 51 1015.6
20190816173011 22 124 0.0 1.6 0.00 0.38 0.30 48 1015.6
20190816171507 22 123 0.0 1.6 0.00 0.38 0.30 47 1015.7
20190816170009 21 123 0.0 1.6 0.00 0.38 0.30 48 1015.8